#timestamp,LO_Frequency,Hit,StdDev 
1622068675.5,286047014.9,P
1622068695.3,286047014.1,P
1622068715.2,286047016.4,P
1622068735.9,286047018.7,Y
1622068755.7,286046999.8,P
1622068775.6,286047000.3,N
1622068795.4,286046998.6,N
1622068815.2,286046996.8,N
1622068835.1,286046997.8,N
1622068836.0,286046997.8,N
1622068855.8,286046997.2,N
1622068875.7,286046996.5,N
1622068895.5,286046998.0,N
1622068915.3,286046995.1,N
1622068935.2,286046996.2,N
1622068955.0,286046995.3,N
1622068955.9,286046995.3,N
1622068975.7,286046998.0,N
1622068995.6,286046997.9,N
1622069015.4,286046995.3,N
1622069035.3,286046995.8,N
1622069055.1,286046995.0,N
1622069056.0,286046995.0,N
1622069075.8,286046997.3,N
1622069095.7,286046996.9,N
1622069115.5,286046996.7,N
1622069135.3,286046999.1,N
1622069155.2,286046999.3,N
1622069175.0,286046998.6,N
1622069175.9,286046998.6,N
1622069195.8,286046999.4,N
1622069215.6,286046996.8,N
1622069235.4,286046996.9,N
1622069255.3,286046999.1,N
1622069275.1,286046999.3,N
1622069295.9,286046998.3,N
1622069315.7,286046996.9,N
1622069335.5,286046996.9,N
1622069355.4,286046996.8,N
1622069375.2,286046999.3,N
1622069395.0,286046999.6,N
1622069395.9,286046999.6,N
1622069415.8,286046999.2,N
1622069435.6,286046996.9,N
1622069455.5,286046999.5,N
1622069475.3,286046996.9,N
1622069495.1,286046996.6,N
1622069515.9,286046996.7,N
1622069535.7,286046997.2,N
1622069555.5,286046997.4,N
1622069575.4,286046998.0,N
1622069595.2,286046997.1,N
1622069615.1,286046996.6,N
1622069616.0,286046996.6,Y
1622069635.8,286047000.8,P
1622069655.6,286046999.0,N
1622069675.5,286046999.5,N
1622069695.3,286046997.8,N
1622069715.1,286046997.1,N
1622069735.9,286046997.4,N
1622069755.7,286046997.8,N
1622069775.6,286046999.6,N
1622069795.4,286046997.0,N
1622069815.2,286046996.8,N
1622069835.1,286046997.7,N
1622069836.0,286046997.7,N
1622069855.8,286046997.4,N
1622069875.6,286046996.7,N
1622069895.5,286046998.4,N
1622069915.3,286046997.7,N
1622069935.2,286046997.8,N
1622069955.9,286046998.0,N
1622069975.7,286046996.9,Y
1622069995.6,286046999.7,P
